Retour au catalogue

DELTA 1 DEB

ActifLEO
NORAD 10716·DEBRIS·🇺🇸 United States

Lancé Jul 29, 1976 depuis Vandenberg Space Force Base

Loading…

Prochains Passages (prochaines 24 heures)

TLE

FraisSource: Space-Track

Époque: Sep 14, 2026, 12:30 UTC

1 10716U 76077AM  26257.52117370  .00002406  00000-0  10017-1 0  9992
2 10716 102.7264 112.3773 0132178 297.4660  91.0305 12.82851006288255

Suivez DELTA 1 DEB en temps réel avec AllMySat

Download on the App Store